Location: Unspecified
(0.0000°N, 0.0000°E)
Time: 20:30:52
(UTC+00:00)

N. Korean satellite - Visible Passes

Search period start: 18 December 2017 00:00
Search period end: 28 December 2017 00:00
Orbit: 461 x 513 km, 97.2° (Epoch: 17 December)

Date Brightness Start Highest point End Pass type
(mag) Time Alt. Az. Time Alt. Az. Time Alt. Az.
19 Dec 9.9 19:13:31 10° SW 19:15:25 14° W 19:17:21 10° WNW visible
20 Dec 8.7 18:48:36 10° SSW 18:51:54 32° W 18:55:13 10° NW visible
21 Dec 6.7 18:24:42 10° S 18:28:22 84° W 18:32:05 10° NNW visible
23 Dec 9.9 19:12:33 10° SW 19:14:34 14° W 19:16:36 10° WNW visible
24 Dec 8.6 18:47:42 10° SSW 18:51:02 33° W 18:54:25 10° NW visible
25 Dec 6.7 18:23:48 10° S 18:27:30 86° W 18:31:14 10° NNW visible
27 Dec 9.9 19:11:33 10° SW 19:13:41 15° W 19:15:47 10° WNW visible
